Regional Weather Roundup
Issued by NWS Portland, ME

Home | Current Version | Previous Version | Text Only | Print | Product List | Glossary On
Versions: 1 2 3 4 5 6 7 8 9 10 11 12 13 14 15 16 17 18 19 20 21 22 23 24 25 26 27 28 29 30 31 32 33 34 35 36 37 38 39 40 41 42 43 44 45 46 47 48 49 50
000
ASUS41 KGYX 272210
RWRGYX
WEATHER ROUNDUP FOR MAINE AND NEW HAMPSHIRE
NATIONAL WEATHER SERVICE GRAY ME
600 PM EDT FRI MAR 27 2015

MEZ002-005-006-010-012-015-018-020-021-024-026-027-029-272300-
MAINE

CITY           SKY/WX    TMP DP  RH WIND       PRES   REMARKS
PORTLAND       CLOUDY    43  34  70 S6        29.70R
SANFORD        CLOUDY    43  30  61 S3        29.69F
BAR HARBOR     CLOUDY    43  34  70 CALM      29.68S
WISCASSET      CLOUDY    45  33  63 S3        29.71R
ROCKLAND       CLOUDY    39  36  87 CALM      29.69R
FRYEBURG       CLOUDY    43  28  55 N5        29.68R
LEWISTONAUBURN CLOUDY    43  27  52 N7        29.68R
AUGUSTA        CLOUDY    44  29  55 NW6       29.69R
WATERVILLE     CLOUDY    45  27  49 N9        29.67R
BANGOR         CLOUDY    40  28  62 NW9       29.68R
GREENVILLE       N/A     36  22  56 NW9       29.64S
MILLINOCKET    MOCLDY    43  22  43 W3        29.68R
HOULTON        MOCLDY    38  26  62 N8        29.67R
PRESQUE ISLE   PTCLDY    37  21  52 N6        29.69R
FRENCHVILLE    PTCLDY    32  12  43 N16       29.69R
CARIBOU        PTCLDY    37  19  48 NW9       29.68R
$$

NHZ002-005-008-009-011-012-014-272300-
NEW HAMPSHIRE

CITY           SKY/WX    TMP DP  RH WIND       PRES   REMARKS
PORTSMOUTH     CLOUDY    41  36  84 W3        29.69S
ROCHESTER      CLOUDY    41  36  82 CALM      29.68S
NASHUA         CLOUDY    42  37  82 CALM      29.70F
MANCHESTER     CLOUDY    44  38  79 S5        29.68F
CONCORD        CLOUDY    43  34  70 S3        29.70R
LACONIA        CLOUDY    45  28  53 W6        29.66S
PLYMOUTH       CLOUDY    41  35  79 W6        29.69R
BERLIN         CLOUDY    37  28  70 NW8       29.69R
WHITEFIELD     CLOUDY    37  32  82 NW6       29.69R
JAFFREY        CLOUDY    39  31  72 VRB3      29.67F
KEENE          CLOUDY    43  30  61 NW3       29.70R
LEBANON        CLOUDY    39  31  72 CALM      29.72R
MT WASHINGTON  SNOW      18  18 100 NW17        N/A  VSB 0   WCI   2
$$

VTZ005-007-008-272300-
VERMONT

CITY           SKY/WX    TMP DP  RH WIND       PRES   REMARKS
ST JOHNSBURY     N/A     38  30  73 MISG      29.70R
MONTPELIER     LGT SNOW  34  29  82 NW8       29.75S
BURLINGTON     CLOUDY    34  28  79 N7        29.78
$$

MAZ007-012-024-CTZ003-RIZ002-NYZ038-NYZ072-272300-
SOUTHERN NEW ENGLAND AND NY

CITY           SKY/WX    TMP DP  RH WIND       PRES   REMARKS
BOSTON         CLOUDY    39  35  86 SE5       29.71F
WORCESTER      CLOUDY    40  32  73 NW5       29.69R
NANTUCKET      CLOUDY    39  36  89 N12       29.69R
PROVIDENCE     CLOUDY    42  36  79 NE3       29.72R
HARTFORD       CLOUDY    44  30  57 NW7       29.71R
ALBANY         PTSUNNY   43  26  51 W13       29.75R
NEW YORK CITY  CLOUDY    46  30  53 NW9       29.72S
$$

ANZ081-ANZ082-ANZ150-NHZ014-MEZ023>029-272300-
COASTAL MARINE OBSERVATIONS

STATION/POSITION TIME  TEMP    WIND        PRES    WAVE
                       AIR SEA DIR/SP/G            HT/PER
                 (UTC) (F)     (DEG/KT/KT) (MB)    (FT/S)
MOUNT DESERT ROC 2200   38                 1004.8R
MATINICUS ROCK   2200   40     300/  3/  3 1005.7R
WELLS            2100   40     210/  6/  6 1004.6R
ISLE OF SHOALS   2200   39     200/  6/  6 1005.3S
JEFFREYS LEDGE   2121      40                N/A     4/10
CASHES LEDGE BUO 2150   39 39              1005.5R   5/10
$$

.............KEY..............
   WCI - WIND CHILL
   TC  - TEMPERATURE IN CELSIUS
   VSB - VISIBILITY IN MILES
   HX  - HEAT INDEX
   FAIR- INDICATES FEW OR NO CLOUDS BELOW 12,000 FT, WITH NO
         SIGNIFICANT WEATHER AND/OR OBSTRUCTIONS TO VISIBILITY.





USA.gov is the U.S. government's official web portal to all federal, state and local government web resources and services.